sat.trackr.live / text

‹ back to catalog

STARLINK-3527

NORAD 51726 · 2022-016N

PAYLOAD ACTIVE UNKNOWN

§ Identity

Operator
Country
US
Launch date
2022-02-21
Launch site
AFETR
Launch vehicle
Mass (kg)
RCS (m²)

Purposes: comms

External: N2YO · Heavens-Above · Gunter

§ Orbital elements

Epoch: 2026-05-24T22:38:23.116704Z

Period
95.31 min
Inclination
53.2168°
Eccentricity
0.0001727
Mean motion
15.10822683 rev/d
Perigee alt
532.5 km
Apogee alt
534.9 km
Semi-major
6,911.8 km
B*
9.1006e-4
RAAN
336.3115°
Arg perigee
115.9860°
Mean anomaly
244.1312°
Rev number
23,508

§ Raw data

STARLINK-35271 51726U 22016N   26144.94332311  .00015035  00000+0  91006-3 0  99972 51726  53.2168 336.3115 0001727 115.9860 244.1312 15.10822683235088

JSON: /api/v1/satellites/51726 · /tle

For live sub-satellite position, see the globe view (requires WebGL).

§ Visibility from observer

Set your observer location to see the next 7 days of passes ≥ 10°. The values pass through the URL so the page stays shareable.

No JS? Fill the form by hand. The geolocation button needs JavaScript.